LiveATC.Net - Listen to live air traffic control over the Internet!
Airport/ARTCC Code
Frequency Search
(e.g., 124.400, 128.75)
Site-wide search
 


Browse Feeds
Top 50 Feeds
HF Oceanic Feeds
Coverage Map
Bad Weather Areas

LiveATC FAQ

Increase Coverage

Contact LiveATC.net
Press Inquiries

LiveATC on iPhone
LiveATC on Android

LiveATC Mobile
(Mobile browser)

ATC Audio Archives
Interesting Recordings

LiveATC Forums

Home Page
About LiveATC.net


Terms of Use
Privacy Policy

AIRMETs/SIGMETs

FAA Airport Status
NAS Status
Arrival Demand


Server Software By:
Icecast.org
Liquidsoap

Select an area of interest:
U.S. Feeds: Class B Airports | Class C Airports | Class D/Other Airports | ARTCC (Centers)
International Feeds: Canada | Europe | Oceania | Asia | South America | North/Central America | Africa
Misc Feeds: HF Feeds
Search by ICAO/IATA airport code:   (e.g., kbos, kjfk, lax, eham, etc.)


Currently Available Live Feeds: 3226
Status Updated: Tue Apr 23 2024 10:54:38 UTC


NOTICE

Unauthorized use prohibited. See LiveATC.net Terms of Service

Asia Airport Feeds

 

LTAF Tower
Adana, Turkey

Feed Status: DOWN
Offline since: 2023-12-06 10:07:22 UTC

LTAF 231020Z VRB02KT CAVOK 29/13 Q1017 NOSIG

Adana Tower: 121.100

OBBI Gnd/Twr/App
Muharraq, Bahrain

Feed Status: DOWN
Offline since: 2024-04-03 09:35:05 UTC

OBBI 231000Z 33018KT CAVOK 30/15 Q1009 NOSIG

Bahrain Arrival: 127.850
Bahrain Control (Low Central): 124.300
Bahrain Control (Low East): 125.700
Bahrain Control (Low North): 126.700
Bahrain Departure: 119.100
Bahrain Ground: 121.850
Bahrain Tower: 118.500

OKBK Gnd/Twr/App/Radar (Archives)
Kuwait City, Kuwait

Feed Status: UP
Listen in your browser - HTML5 player(in browser, HTML5)
Click here to listen with your own player(launches your MP3 player)

OKBK 230800Z 06008KT 8000 NSC 22/05 Q1012 NOSIG


Listeners: 6 out of 2388 total

Kuwait Approach: 121.300
Kuwait Approach: 124.800
Kuwait Ground: 121.700
Kuwait Radar (Center): 125.300
Kuwait Tower: 118.300

OPKC Gnd/Twr/Radar (Archives)
Karachi, Pakistan

Feed Status: UP
Listen in your browser - HTML5 player(in browser, HTML5)
Click here to listen with your own player(launches your MP3 player)

OPKC 231030Z 24017KT 7000 NSC 33/21 Q1006 NOSIG


Listeners: 12 out of 2388 total

Karachi Ground: 121.600
Karachi Radar: 125.500
Karachi Tower: 118.300

OPLA ATIS
Lahore, Pakistan

Feed Status: DOWN
Offline since: 2024-04-17 20:00:22 UTC

OPLA 231025Z 05011KT 7000 SCT040 SCT100 30/16 Q1007 NOSIG RMK QFE981 A29.74

Lahore ATIS: 126.300

OPLA/OPLH Gnd/Twr/App
Lahore, Pakistan

Feed Status: DOWN
Offline since: 2024-04-17 20:00:22 UTC

OPLA 231025Z 05011KT 7000 SCT040 SCT100 30/16 Q1007 NOSIG RMK QFE981 A29.74

Lahore Approach: 121.300
Lahore Approach: 125.300
Lahore Control: 127.500
Lahore Ground: 118.400
Lahore Tower: 118.100
Lahore Tower: 121.800
Walton (OPLH) Tower: 119.400

RCKH Del/Gnd/Twr/App (Archives)
Kaohsiung, Taiwan

Feed Status: UP
Listen in your browser - HTML5 player(in browser, HTML5)
Click here to listen with your own player(launches your MP3 player)

RCKH 231000Z 30004KT 270V340 9999 FEW015 SCT045 BKN140 29/22 Q1008 NOSIG RMK A2978

RCKH Flight Activity (Flightaware)

Listeners: 1 out of 2388 total

Kaohsiung Approach: 135.800
Kaohsiung Approach: 128.100
Kaohsiung Approach: 123.100
Kaohsiung Approach: 121.100
Kaohsiung Approach: 120.600
Kaohsiung Approach: 119.500
Kaohsiung Approach: 119.400
Kaohsiung Approach: 124.700
Kaohsiung Clearance Delivery: 121.900
Kaohsiung Clearance Delivery: 121.800
Kaohsiung Ground: 121.900
Kaohsiung Tower: 120.700
Kaohsiung Tower: 118.700
Kaohsiung Tower (Secondary): 121.800

RCSS Tower/App/Dep (Archives)
Taipei, Taiwan

Feed Status: UP
Listen in your browser - HTML5 player(in browser, HTML5)
Click here to listen with your own player(launches your MP3 player)

RCSS 231000Z 28012KT 250V310 9999 FEW016 BKN035 BKN090 28/23 Q1007 NOSIG RMK 28011KT/R10 A2976

RCSS Flight Activity (Flightaware)

Listeners: 25 out of 2388 total

Emergency/Guard: 121.500
FIR Service (North of Taiwan): 125.500
Songshan Ground: 121.900
Songshan Tower: 118.100
Taipei Arrival/Departure: 119.700
Taipei Arrival/Departure: 119.600
Taipei Arrival/Departure (RCTP): 125.100

RJAA Approach (Archives)
Tokyo, Japan

Feed Status: UP
Listen in your browser - HTML5 player(in browser, HTML5)
Click here to listen with your own player(launches your MP3 player)

RJAA 231000Z 05005KT 020V090 9999 FEW015 SCT035 BKN050 17/13 Q1017 NOSIG

RJAA Flight Activity (Flightaware)

Listeners: 12 out of 2388 total

Tokyo Approach: 124.400
Tokyo Approach: 127.700

RJAA ATIS (Archives)
Tokyo, Japan

Feed Status: UP
Listen in your browser - HTML5 player(in browser, HTML5)
Click here to listen with your own player(launches your MP3 player)

RJAA 231000Z 05005KT 020V090 9999 FEW015 SCT035 BKN050 17/13 Q1017 NOSIG

RJAA Flight Activity (Flightaware)

Listeners: 1 out of 2388 total

Narita ATIS: 128.250

RJAA Clearance Delivery (Archives)
Tokyo, Japan

Feed Status: UP
Listen in your browser - HTML5 player(in browser, HTML5)
Click here to listen with your own player(launches your MP3 player)

RJAA 231000Z 05005KT 020V090 9999 FEW015 SCT035 BKN050 17/13 Q1017 NOSIG

RJAA Flight Activity (Flightaware)

Listeners: 5 out of 2388 total

Narita Clearance Delivery (Asia/Pacific): 121.650
Narita Clearance Delivery (US/Europe): 121.900

RJAA Clearance Delivery #1 (Archives)
Tokyo, Japan

Feed Status: UP
Listen in your browser - HTML5 player(in browser, HTML5)
Click here to listen with your own player(launches your MP3 player)

RJAA 231000Z 05005KT 020V090 9999 FEW015 SCT035 BKN050 17/13 Q1017 NOSIG

RJAA Flight Activity (Flightaware)

Listeners: 0 out of 2388 total

Narita Clearance Delivery (Asia/Pacific): 121.650

RJAA Clearance Delivery #2 (Archives)
Tokyo, Japan

Feed Status: UP
Listen in your browser - HTML5 player(in browser, HTML5)
Click here to listen with your own player(launches your MP3 player)

RJAA 231000Z 05005KT 020V090 9999 FEW015 SCT035 BKN050 17/13 Q1017 NOSIG

RJAA Flight Activity (Flightaware)

Listeners: 1 out of 2388 total

Narita Clearance Delivery (US/Europe): 121.900

RJAA Company Channels (Archives)
Tokyo, Japan

Feed Status: UP
Listen in your browser - HTML5 player(in browser, HTML5)
Click here to listen with your own player(launches your MP3 player)

RJAA 231000Z 05005KT 020V090 9999 FEW015 SCT035 BKN050 17/13 Q1017 NOSIG

RJAA Flight Activity (Flightaware)

Listeners: 1 out of 2388 total

Ops: 130.450
Ops: 130.550
Ops: 130.900
Ops: 131.025
Ops: 131.100
Ops: 131.200
Ops: 131.700
Ops: 131.750

RJAA Departure (Archives)
Tokyo, Japan

Feed Status: UP
Listen in your browser - HTML5 player(in browser, HTML5)
Click here to listen with your own player(launches your MP3 player)

RJAA 231000Z 05005KT 020V090 9999 FEW015 SCT035 BKN050 17/13 Q1017 NOSIG

RJAA Flight Activity (Flightaware)

Listeners: 5 out of 2388 total

Tokyo Departure: 119.600
Tokyo Departure: 124.200

RJAA Departure #1 (Archives)
Tokyo, Japan

Feed Status: UP
Listen in your browser - HTML5 player(in browser, HTML5)
Click here to listen with your own player(launches your MP3 player)

RJAA 231000Z 05005KT 020V090 9999 FEW015 SCT035 BKN050 17/13 Q1017 NOSIG

RJAA Flight Activity (Flightaware)

Listeners: 2 out of 2388 total

Tokyo Departure: 124.200

RJAA Departure #2 (Archives)
Tokyo, Japan

Feed Status: UP
Listen in your browser - HTML5 player(in browser, HTML5)
Click here to listen with your own player(launches your MP3 player)

RJAA 231000Z 05005KT 020V090 9999 FEW015 SCT035 BKN050 17/13 Q1017 NOSIG

RJAA Flight Activity (Flightaware)

Listeners: 0 out of 2388 total

Tokyo Departure: 119.600

RJAA Emergency/Guard (Archives)
Tokyo, Japan

Feed Status: UP
Listen in your browser - HTML5 player(in browser, HTML5)
Click here to listen with your own player(launches your MP3 player)

RJAA 231000Z 05005KT 020V090 9999 FEW015 SCT035 BKN050 17/13 Q1017 NOSIG

RJAA Flight Activity (Flightaware)

Listeners: 2 out of 2388 total

Emergency/Guard: 121.500

RJAA Ground #1 (Archives)
Tokyo, Japan

Feed Status: UP
Listen in your browser - HTML5 player(in browser, HTML5)
Click here to listen with your own player(launches your MP3 player)

RJAA 231000Z 05005KT 020V090 9999 FEW015 SCT035 BKN050 17/13 Q1017 NOSIG

RJAA Flight Activity (Flightaware)

Listeners: 4 out of 2388 total

Narita Ground: 121.850

RJAA Ground #2 (Archives)
Tokyo, Japan

Feed Status: UP
Listen in your browser - HTML5 player(in browser, HTML5)
Click here to listen with your own player(launches your MP3 player)

RJAA 231000Z 05005KT 020V090 9999 FEW015 SCT035 BKN050 17/13 Q1017 NOSIG

RJAA Flight Activity (Flightaware)

Listeners: 3 out of 2388 total

Narita Ground: 121.950

RJAA Radar 119.025 (Archives)
Tokyo, Japan

Feed Status: UP
Listen in your browser - HTML5 player(in browser, HTML5)
Click here to listen with your own player(launches your MP3 player)

RJAA 231000Z 05005KT 020V090 9999 FEW015 SCT035 BKN050 17/13 Q1017 NOSIG

RJAA Flight Activity (Flightaware)

Listeners: 4 out of 2388 total

Tokyo Radar: 119.025

RJAA Radar 120.2 (Archives)
Tokyo, Japan

Feed Status: UP
Listen in your browser - HTML5 player(in browser, HTML5)
Click here to listen with your own player(launches your MP3 player)

RJAA 231000Z 05005KT 020V090 9999 FEW015 SCT035 BKN050 17/13 Q1017 NOSIG

RJAA Flight Activity (Flightaware)

Listeners: 3 out of 2388 total

Tokyo Radar: 120.200

RJAA Radar 120.6 (Archives)
Tokyo, Japan

Feed Status: UP
Listen in your browser - HTML5 player(in browser, HTML5)
Click here to listen with your own player(launches your MP3 player)

RJAA 231000Z 05005KT 020V090 9999 FEW015 SCT035 BKN050 17/13 Q1017 NOSIG

RJAA Flight Activity (Flightaware)

Listeners: 3 out of 2388 total

Tokyo Radar: 120.600

RJAA Radar 132.1 (Archives)
Tokyo, Japan

Feed Status: UP
Listen in your browser - HTML5 player(in browser, HTML5)
Click here to listen with your own player(launches your MP3 player)

RJAA 231000Z 05005KT 020V090 9999 FEW015 SCT035 BKN050 17/13 Q1017 NOSIG

RJAA Flight Activity (Flightaware)

Listeners: 3 out of 2388 total

Tokyo Radar: 132.100

RJAA Radar 133.35 (Archives)
Tokyo, Japan

Feed Status: UP
Listen in your browser - HTML5 player(in browser, HTML5)
Click here to listen with your own player(launches your MP3 player)

RJAA 231000Z 05005KT 020V090 9999 FEW015 SCT035 BKN050 17/13 Q1017 NOSIG

RJAA Flight Activity (Flightaware)

Listeners: 3 out of 2388 total

Tokyo Radar: 133.350

RJAA Ramp #1 (Archives)
Tokyo, Japan

Feed Status: UP
Listen in your browser - HTML5 player(in browser, HTML5)
Click here to listen with your own player(launches your MP3 player)

RJAA 231000Z 05005KT 020V090 9999 FEW015 SCT035 BKN050 17/13 Q1017 NOSIG

RJAA Flight Activity (Flightaware)

Listeners: 2 out of 2388 total

Narita Ramp: 121.600

RJAA Ramp #2 (Archives)
Tokyo, Japan

Feed Status: UP
Listen in your browser - HTML5 player(in browser, HTML5)
Click here to listen with your own player(launches your MP3 player)

RJAA 231000Z 05005KT 020V090 9999 FEW015 SCT035 BKN050 17/13 Q1017 NOSIG

RJAA Flight Activity (Flightaware)

Listeners: 4 out of 2388 total

Narita Ramp: 121.750

RJAA TCA (Archives)
Tokyo, Japan

Feed Status: UP
Listen in your browser - HTML5 player(in browser, HTML5)
Click here to listen with your own player(launches your MP3 player)

RJAA 231000Z 05005KT 020V090 9999 FEW015 SCT035 BKN050 17/13 Q1017 NOSIG

RJAA Flight Activity (Flightaware)

Listeners: 2 out of 2388 total

Tokyo TCA (Terminal Control Area): 119.450

RJAA Tokyo Control (Archives)
Tokyo, Japan

Feed Status: UP
Listen in your browser - HTML5 player(in browser, HTML5)
Click here to listen with your own player(launches your MP3 player)

RJAA 231000Z 05005KT 020V090 9999 FEW015 SCT035 BKN050 17/13 Q1017 NOSIG

RJAA Flight Activity (Flightaware)

Listeners: 2 out of 2388 total

Tokyo Control: 125.900

RJAA Tower #1 (Archives)
Tokyo, Japan

Feed Status: UP
Listen in your browser - HTML5 player(in browser, HTML5)
Click here to listen with your own player(launches your MP3 player)

RJAA 231000Z 05005KT 020V090 9999 FEW015 SCT035 BKN050 17/13 Q1017 NOSIG

RJAA Flight Activity (Flightaware)

Listeners: 7 out of 2388 total

Narita Tower (Rwy 16R/34L): 118.200

RJAA Tower #2 (Archives)
Tokyo, Japan

Feed Status: UP
Listen in your browser - HTML5 player(in browser, HTML5)
Click here to listen with your own player(launches your MP3 player)

RJAA 231000Z 05005KT 020V090 9999 FEW015 SCT035 BKN050 17/13 Q1017 NOSIG

RJAA Flight Activity (Flightaware)

Listeners: 3 out of 2388 total

Narita Tower (Rwy 16L/34R): 118.350

RJAA Tower (Both) (Archives)
Tokyo, Japan

Feed Status: UP
Listen in your browser - HTML5 player(in browser, HTML5)
Click here to listen with your own player(launches your MP3 player)

RJAA 231000Z 05005KT 020V090 9999 FEW015 SCT035 BKN050 17/13 Q1017 NOSIG

RJAA Flight Activity (Flightaware)

Listeners: 14 out of 2388 total

Narita Tower (Rwy 16L/34R): 118.350
Narita Tower (Rwy 16R/34L): 118.200

RJFF App/Radar (Archives)
Fukuoka, Japan

Feed Status: UP
Listen in your browser - HTML5 player(in browser, HTML5)
Click here to listen with your own player(launches your MP3 player)

RJFF 231000Z 29004KT 250V330 9999 FEW010 SCT013 BKN015 18/16 Q1007 NOSIG

RJFF Flight Activity (Flightaware)

Listeners: 0 out of 2388 total

Fukuoka Approach: 119.650
Fukuoka Radar: 121.125

RJFF App/TCA (Archives)
Fukuoka, Japan

Feed Status: UP
Listen in your browser - HTML5 player(in browser, HTML5)
Click here to listen with your own player(launches your MP3 player)

RJFF 231000Z 29004KT 250V330 9999 FEW010 SCT013 BKN015 18/16 Q1007 NOSIG

RJFF Flight Activity (Flightaware)

Listeners: 0 out of 2388 total

Fukuoka Approach/TCA: 121.275

RJFF Control (Archives)
Fukuoka, Japan

Feed Status: UP
Listen in your browser - HTML5 player(in browser, HTML5)
Click here to listen with your own player(launches your MP3 player)

RJFF 231000Z 29004KT 250V330 9999 FEW010 SCT013 BKN015 18/16 Q1007 NOSIG

RJFF Flight Activity (Flightaware)

Listeners: 1 out of 2388 total

Kobe Control (N53) : 118.900

RJFF Departure (Archives)
Fukuoka, Japan

Feed Status: UP
Listen in your browser - HTML5 player(in browser, HTML5)
Click here to listen with your own player(launches your MP3 player)

RJFF 231000Z 29004KT 250V330 9999 FEW010 SCT013 BKN015 18/16 Q1007 NOSIG

RJFF Flight Activity (Flightaware)

Listeners: 0 out of 2388 total

Fukuoka Departure: 127.900
Fukuoka Departure (secondary): 119.700
Fukuoka Departure (secondary): 128.450

RJFF Tower (Archives)
Fukuoka, Japan

Feed Status: UP
Listen in your browser - HTML5 player(in browser, HTML5)
Click here to listen with your own player(launches your MP3 player)

RJFF 231000Z 29004KT 250V330 9999 FEW010 SCT013 BKN015 18/16 Q1007 NOSIG

RJFF Flight Activity (Flightaware)

Listeners: 0 out of 2388 total

Fukuoka Tower: 118.400
Fukuoka Tower: 126.200

RJOO Tower (Archives)
Osaka, Japan

Feed Status: UP
Listen in your browser - HTML5 player(in browser, HTML5)
Click here to listen with your own player(launches your MP3 player)

RJOO 231000Z 07010KT 9999 -SHRA FEW015 SCT040 BKN070 19/15 Q1011

RJOO Flight Activity (Flightaware)

Listeners: 26 out of 2388 total

Osaka Tower: 118.100

RJOY Del/Gnd/Twr (Archives)
Yao, Japan

Feed Status: UP
Listen in your browser - HTML5 player(in browser, HTML5)
Click here to listen with your own player(launches your MP3 player)

RJOY Flight Activity (Flightaware)

Listeners: 1 out of 2388 total

Emergency/Guard: 121.500
Yao Ground: 121.800
Yao Tower: 124.350
Yao Tower: 126.200

RJSF RDO (Archives)
Sukagawa, Japan

Feed Status: UP
Listen in your browser - HTML5 player(in browser, HTML5)
Click here to listen with your own player(launches your MP3 player)

RJSF 231000Z 12005KT 080V160 9999 FEW005 BKN012 BKN025 12/10 Q1018

RJSF Flight Activity (Flightaware)

Listeners: 6 out of 2388 total

Fukushima Radio: 118.050

RJTT App/Dep (Archives)
Tokyo, Japan

Feed Status: UP
Listen in your browser - HTML5 player(in browser, HTML5)
Click here to listen with your own player(launches your MP3 player)

RJTT 231000Z 08009KT 040V100 9999 FEW015 SCT030 BKN040 17/14 Q1017 NOSIG

RJTT Flight Activity (Flightaware)

Listeners: 43 out of 2388 total

Tokyo Approach: 119.100
Tokyo Approach: 119.400
Tokyo Departure: 120.800
Tokyo Departure: 126.000

RJTT Approach (Archives)
Tokyo, Japan

Feed Status: UP
Listen in your browser - HTML5 player(in browser, HTML5)
Click here to listen with your own player(launches your MP3 player)

RJTT 231000Z 08009KT 040V100 9999 FEW015 SCT030 BKN040 17/14 Q1017 NOSIG

RJTT Flight Activity (Flightaware)

Listeners: 17 out of 2388 total

Tokyo Approach: 119.100
Tokyo Approach: 119.400

RJTT ATIS (Archives)
Tokyo, Japan

Feed Status: UP
Listen in your browser - HTML5 player(in browser, HTML5)
Click here to listen with your own player(launches your MP3 player)

RJTT 231000Z 08009KT 040V100 9999 FEW015 SCT030 BKN040 17/14 Q1017 NOSIG

RJTT Flight Activity (Flightaware)

Listeners: 7 out of 2388 total

Tokyo ATIS: 128.800

RJTT Company Channels (Archives)
Tokyo, Japan

Feed Status: UP
Listen in your browser - HTML5 player(in browser, HTML5)
Click here to listen with your own player(launches your MP3 player)

RJTT 231000Z 08009KT 040V100 9999 FEW015 SCT030 BKN040 17/14 Q1017 NOSIG

RJTT Flight Activity (Flightaware)

Listeners: 18 out of 2388 total

Company TBD: 128.500
Company TBD: 131.850
Company TBD: 129.725
Company TBD: 129.700
Company TBD: 131.900
Company TBD: 129.850
Company TBD: 128.975
Company TBD: 123.675
Company TBD: 132.075

RJTT Del/Ground (Archives)
Tokyo, Japan

Feed Status: UP
Listen in your browser - HTML5 player(in browser, HTML5)
Click here to listen with your own player(launches your MP3 player)

RJTT 231000Z 08009KT 040V100 9999 FEW015 SCT030 BKN040 17/14 Q1017 NOSIG

RJTT Flight Activity (Flightaware)

Listeners: 13 out of 2388 total

Tokyo Clearance Delivery: 121.825
Tokyo Ground: 121.700
Tokyo Ground: 118.225
Tokyo Ground: 121.625
Tokyo Ground: 121.975

RJTT Del/Twr/TCA/Gnd (Archives)
Tokyo, Japan

Feed Status: UP
Listen in your browser - HTML5 player(in browser, HTML5)
Click here to listen with your own player(launches your MP3 player)

RJTT 231000Z 08009KT 040V100 9999 FEW015 SCT030 BKN040 17/14 Q1017 NOSIG

RJTT Flight Activity (Flightaware)

Listeners: 18 out of 2388 total

Tokyo Clearance Delivery: 121.825
Tokyo Ground: 121.975
Tokyo Ground: 121.625
Tokyo Ground: 121.700
Tokyo Ground: 118.225
Tokyo TCA: 124.750
Tokyo Tower: 118.100
Tokyo Tower: 118.575
Tokyo Tower: 118.725
Tokyo Tower: 124.350

RJTT Departure (Archives)
Tokyo, Japan

Feed Status: UP
Listen in your browser - HTML5 player(in browser, HTML5)
Click here to listen with your own player(launches your MP3 player)

RJTT 231000Z 08009KT 040V100 9999 FEW015 SCT030 BKN040 17/14 Q1017 NOSIG

RJTT Flight Activity (Flightaware)

Listeners: 9 out of 2388 total

Tokyo Departure: 120.800
Tokyo Departure: 126.000

RJTT Tokyo Control (Archives)
Tokyo, Japan

Feed Status: UP
Listen in your browser - HTML5 player(in browser, HTML5)
Click here to listen with your own player(launches your MP3 player)

RJTT 231000Z 08009KT 040V100 9999 FEW015 SCT030 BKN040 17/14 Q1017 NOSIG

RJTT Flight Activity (Flightaware)

Listeners: 32 out of 2388 total

Tokyo Control: 133.700
Tokyo Control: 125.900
Tokyo Control: 120.500

RJTT Twr/TCA (Archives)
Tokyo, Japan

Feed Status: UP
Listen in your browser - HTML5 player(in browser, HTML5)
Click here to listen with your own player(launches your MP3 player)

RJTT 231000Z 08009KT 040V100 9999 FEW015 SCT030 BKN040 17/14 Q1017 NOSIG

RJTT Flight Activity (Flightaware)

Listeners: 23 out of 2388 total

Tokyo TCA: 124.750
Tokyo Tower: 118.100
Tokyo Tower: 118.575
Tokyo Tower: 118.725
Tokyo Tower: 124.350

RJTY Approach (Archives)
Tokyo, Japan

Feed Status: UP
Listen in your browser - HTML5 player(in browser, HTML5)
Click here to listen with your own player(launches your MP3 player)

RJTY 230955Z 00000KT 5SM -DZ BR SCT015 BKN020 15/13 A3007 RMK AO2A DZB48 SLP186 P0001 T01510133 $

RJTY Flight Activity (Flightaware)

Listeners: 7 out of 2388 total

Yokota Approach: 118.300
Yokota APproach: 123.800
Yokota Approach: 120.700

RJTY ATIS (Archives)
Tokyo, Japan

Feed Status: UP
Listen in your browser - HTML5 player(in browser, HTML5)
Click here to listen with your own player(launches your MP3 player)

RJTY 230955Z 00000KT 5SM -DZ BR SCT015 BKN020 15/13 A3007 RMK AO2A DZB48 SLP186 P0001 T01510133 $

RJTY Flight Activity (Flightaware)

Listeners: 2 out of 2388 total

Yokota ATIS: 126.400

RJTY Ground (Archives)
Tokyo, Japan

Feed Status: UP
Listen in your browser - HTML5 player(in browser, HTML5)
Click here to listen with your own player(launches your MP3 player)

RJTY 230955Z 00000KT 5SM -DZ BR SCT015 BKN020 15/13 A3007 RMK AO2A DZB48 SLP186 P0001 T01510133 $

RJTY Flight Activity (Flightaware)

Listeners: 4 out of 2388 total

Yokota Ground: 133.200

RJTY Ground/Tower (Archives)
Tokyo, Japan

Feed Status: UP
Listen in your browser - HTML5 player(in browser, HTML5)
Click here to listen with your own player(launches your MP3 player)

RJTY 230955Z 00000KT 5SM -DZ BR SCT015 BKN020 15/13 A3007 RMK AO2A DZB48 SLP186 P0001 T01510133 $

RJTY Flight Activity (Flightaware)

Listeners: 6 out of 2388 total

Yokota Ground: 133.200
Yokota Tower: 134.300

RJTY Tower (Archives)
Tokyo, Japan

Feed Status: UP
Listen in your browser - HTML5 player(in browser, HTML5)
Click here to listen with your own player(launches your MP3 player)

RJTY 230955Z 00000KT 5SM -DZ BR SCT015 BKN020 15/13 A3007 RMK AO2A DZB48 SLP186 P0001 T01510133 $

RJTY Flight Activity (Flightaware)

Listeners: 6 out of 2388 total

Yokota Tower: 134.300

RPUX Gnd/Twr (Archives)
Plaridel, Philippines

Feed Status: UP
Listen in your browser - HTML5 player(in browser, HTML5)
Click here to listen with your own player(launches your MP3 player)

METAR NOT AVAILABLE

RPUX Flight Activity (Flightaware)

Listeners: 0 out of 2388 total

Plaridel Ground: 123.550
Plaridel Tower: 122.400

RPUX Ground (Archives)
Plaridel, Philippines

Feed Status: UP
Listen in your browser - HTML5 player(in browser, HTML5)
Click here to listen with your own player(launches your MP3 player)

METAR NOT AVAILABLE

RPUX Flight Activity (Flightaware)

Listeners: 0 out of 2388 total

Plaridel Ground: 123.550

RPUX Tower (Archives)
Plaridel, Philippines

Feed Status: UP
Listen in your browser - HTML5 player(in browser, HTML5)
Click here to listen with your own player(launches your MP3 player)

METAR NOT AVAILABLE

RPUX Flight Activity (Flightaware)

Listeners: 0 out of 2388 total

Plaridel Tower: 122.400

UHHH Gnd/Twr/App/Radar/Control (Archives)
Khabarovsk, Russia

Feed Status: UP
Listen in your browser - HTML5 player(in browser, HTML5)
Click here to listen with your own player(launches your MP3 player)

UHHH 231000Z 29002MPS CAVOK 17/06 Q1014 R88/090060 NOSIG RMK QFE754/1005

UHHH Flight Activity (Flightaware)

Listeners: 1 out of 2388 total

Emergency/Guard: 121.500
Khabarovsk Approach: 125.200
Khabarovsk Control Sector 2: 124.500
Khabarovsk Control Sector 3: 128.800
Khabarovsk Control Sector 3: 127.100
Khabarovsk Control Sector 4: 128.300
Khabarovsk Control Sector 4: 134.700
Khabarovsk Ground: 121.800
Khabarovsk Radar: 120.300
Khabarovsk Tower: 119.300

UNNT Gnd/Twr/App/Radar/Misc (Archives)
Novosibirsk, Russia

Feed Status: UP
Listen in your browser - HTML5 player(in browser, HTML5)
Click here to listen with your own player(launches your MP3 player)

UNNT 231000Z 33007MPS 9999 BKN041 01/M10 Q1021 R25/090070 R16/////// NOSIG RMK QFE755/1007

UNNT Flight Activity (Flightaware)

Listeners: 10 out of 2388 total

ACC_Novosibirsk-Control [5th military channel]: 128.500
ACC_Novosibirsk-Control [Southeast]: 126.100
ACC_Novosibirsk-Control [West]: 127.000
GPA_Kristallik [Severniy airfield]: 123.425
GPA_Sernisiy [Chkalovskiy airfield]: 124.750
GPA_Tomsk Information 1: 134.500
MIL_3 [3rd military channel]: 130.750
MIL_Larek [Shilovo facility]: 123.750
MIL_Maneken [Chkalovskiy airfield]: 123.550
MIL_Novosibirsk-1 [1st military channel]: 124.000
MIL_Noyabr' 31: 124.900
MIL_Trimaran: 124.500
SP_Air-to-Air: 123.450
SP_Air-to-Air 2: 123.400
SP_Common backup frequency: 129.000
SP_Emergency: 121.500
SP_Emergency 2: 123.100
SP_Flyoff: 124.375
SURF_Boarding: 163.425
SURF_Duty chart: 163.800
SURF_O&D Service: 163.325
SURF_Search & Rescue: 164.000
SURF_Security: 163.750
SURF_Tower surf: 163.650
SURF_Vehicles: 163.850
UNNT_Backup frequency: 127.100
UNNT_Novosibirsk-Approach: 127.500
UNNT_Novosibirsk-Ground: 121.700
UNNT_Novosibirsk-Radar: 122.000
UNNT_Novosibirsk-Tower: 118.500
UNNT_Novosibirsk-Transit: 131.600
UNNT_S7 FOCC: 131.925

UNOO Gnd/Tower/App
Omsk, Russia

Feed Status: DOWN
Offline since: 2024-01-25 11:34:40 UTC

UNOO 231000Z 31005MPS CAVOK 07/M08 Q1025 R07/CLRD60 NOSIG RMK QFE760

Aerodrom Kalachevo: 123.300
Aerodrom Marianovka: 123.000
Emergency/Guard: 121.500
Novosibirsk Control (Sector 7): 132.500
Novosibirsk Control (Sector 8): 132.900
Omsk Approach (FL060-FL265): 131.200
Omsk Apron: 118.800
Omsk Start/Radar: 119.000
Omsk Taxiing: 121.700
Omsk Transit: 131.700
UNOS/OMSK-Severny: 124.000

UNTT Gnd/Info/Radar/Control
Tomsk, Russia

Feed Status: DOWN
Offline since: 2024-01-31 10:16:23 UTC

Common Backup Frequency: 129.000
Emergency/Guard: 121.500
Kemerovo Approach: 125.500
Novosibirsk Control (Sector 3): 129.300
Novosibirsk Control (Sector 5): 132.300
Novosibirsk Control (Sector 9): 134.400
Tomsk Ground: 118.800
Tomsk Information (Sector 3): 129.800
Tomsk Tower: 127.300
Tomsk Transit: 131.875
Troynik (Golovino): 122.400

USTR Gnd/Twr/App (Archives)
Tyumen, Russia

Feed Status: UP
Listen in your browser - HTML5 player(in browser, HTML5)
Click here to listen with your own player(launches your MP3 player)

USTR 231000Z 03003MPS 360V100 CAVOK 05/M12 Q1029 R30/090065 R03/090065 NOSIG

USTR Flight Activity (Flightaware)

Listeners: 1 out of 2388 total

Tyumen Approach: 126.100
Tyumen Control: 132.600
Tyumen Control: 133.600
Tyumen Info (Regional): 133.400
Tyumen Start: 118.200
Tyumen Transit: 131.800

VCBI App/Center
Colombo, Sri Lanka

Feed Status: DOWN
Offline since: 2024-02-19 06:20:39 UTC

VCBI 231010Z 27006KT 200V360 9000 SCT017 FEW019CB 32/27 Q1005 NOSIG RMK CB E/SE/SW

Colombo Center: 124.900
Colombo/Ratmalana Approach: 119.100

VHHH App/Dep/Dir/Zone (Archives)
Hong Kong, Hong Kong

Feed Status: UP
Listen in your browser - HTML5 player(in browser, HTML5)
Click here to listen with your own player(launches your MP3 player)

VHHH 231000Z 08007KT 9999 FEW012 SCT035 26/22 Q1007 NOSIG

VHHH Flight Activity (Flightaware)

Listeners: 21 out of 2388 total

Emergency/Guard: 121.500
Hong Kong Approach: 119.100
Hong Kong Approach: 119.350
Hong Kong Departure: 123.800
Hong Kong Departure: 122.000
Hong Kong Departure: 124.050
Hong Kong Director: 119.500
Hong Kong Director: 119.350
Hong Kong Zone: 120.600

VHHH Twr/App/Dep/Dir/Zone
Hong Kong, Hong Kong

Feed Status: DOWN
Offline since: 2024-03-19 13:19:40 UTC

VHHH 231000Z 08007KT 9999 FEW012 SCT035 26/22 Q1007 NOSIG

Hong Kong Departure: 122.000
Hong Kong Information: 122.400
Hong Kong Radar (East): 118.925
Hong Kong Radar (South): 132.150
Hong Kong Radar (Terminal Departure Central): 123.475
Hong Kong Radar (Terminal East): 126.500
Hong Kong Radar (Terminal West) : 127.550

VTSS Approach
Songkhla, Thailand

Feed Status: DOWN
Offline since: 2024-03-05 20:01:06 UTC

VTSS 231000Z 33007KT 270V080 9999 FEW020 33/25 Q1004 NOSIG

Hat Yai Approach: 126.700

WBKK Gnd/Twr/Radar/Control (Archives)
Kota Kinabalu, Malaysia

Feed Status: UP
Listen in your browser - HTML5 player(in browser, HTML5)
Click here to listen with your own player(launches your MP3 player)

WBKK 231000Z 02005KT 9999 FEW014 31/27 Q1004 NOSIG


Listeners: 4 out of 2388 total

Kinabalu Director: 119.100
Kinabalu Ground: 121.600
Kinabalu Radar: 126.100
Kinabalu Radar: 132.450
Kinabalu Radar: 128.300
Kinabalu Tower: 118.300

WBKS Approach (Archives)
Sandakan, Malaysia

Feed Status: UP
Listen in your browser - HTML5 player(in browser, HTML5)
Click here to listen with your own player(launches your MP3 player)

WBKS 231000Z VRB03KT 9999 FEW016 29/27 Q1006


Listeners: 3 out of 2388 total

Sandakan Approach/Departure: 123.200

WBKS Emergency/Guard (Archives)
Sandakan, Malaysia

Feed Status: UP
Listen in your browser - HTML5 player(in browser, HTML5)
Click here to listen with your own player(launches your MP3 player)

WBKS 231000Z VRB03KT 9999 FEW016 29/27 Q1006


Listeners: 1 out of 2388 total

Emergency/Guard: 121.500

WBKS Gnd/Twr/App/Guard (Archives)
Sandakan, Malaysia

Feed Status: UP
Listen in your browser - HTML5 player(in browser, HTML5)
Click here to listen with your own player(launches your MP3 player)

WBKS 231000Z VRB03KT 9999 FEW016 29/27 Q1006


Listeners: 1 out of 2388 total

Emergency/Guard: 121.500
Sandakan Approach/Departure: 123.200
Sandakan Ground: 121.900
Sandakan Tower: 122.050

WBKS Ground (Archives)
Sandakan, Malaysia

Feed Status: UP
Listen in your browser - HTML5 player(in browser, HTML5)
Click here to listen with your own player(launches your MP3 player)

WBKS 231000Z VRB03KT 9999 FEW016 29/27 Q1006


Listeners: 1 out of 2388 total

Sandakan Ground: 121.900

WBKS Tower (Archives)
Sandakan, Malaysia

Feed Status: UP
Listen in your browser - HTML5 player(in browser, HTML5)
Click here to listen with your own player(launches your MP3 player)

WBKS 231000Z VRB03KT 9999 FEW016 29/27 Q1006


Listeners: 1 out of 2388 total

Sandakan Tower: 122.050

WMKB Radar (Archives)
Penang, Malaysia

Feed Status: UP
Listen in your browser - HTML5 player(in browser, HTML5)
Click here to listen with your own player(launches your MP3 player)

WMKB 231000Z 30009KT 250V340 9000 FEW017CB 33/25 Q1004 NOSIG


Listeners: 10 out of 2388 total

Butterworth Radar: 125.925

WSSS Del/Gnd/App/Radar (Archives)
Singapore, Singapore

Feed Status: UP
Listen in your browser - HTML5 player(in browser, HTML5)
Click here to listen with your own player(launches your MP3 player)

WSSS 231030Z 12007KT 9999 FEW020 BKN300 31/25 Q1005 NOSIG


Listeners: 8 out of 2388 total

Seletar Tower: 118.450
Seletar Tower: 130.200
Sembawabg Tower: 129.700
Singapore Approach/Departure (P): 120.300
Singapore Approach/Departure (S): 124.600
Singapore Arrival: 119.300
Singapore Clearance Delivery: 121.650
Singapore Radar: 124.050
Singapore Radar: 133.800
Singapore Radar (P): 133.250
Singapore Radar (P): 123.700
Singapore Radar (P): 134.200
Singapore Radar (P): 134.400
Singapore Radar (S): 127.300
Singapore Radar (S): 128.100
Singapore Radar (S): 135.800
Singapore Radar (S): 133.350